Tracking 33198 objects as of 13-Feb-2026
HD Live streaming from Space Station
objects crossing your sky now

FOSSASAT2E19 (TAT-E)

Track FOSSASAT2E19 (TAT-E) now!
10-day predictions
FOSSASAT2E19 (TAT-E) is classified as:


NORAD ID: 62676
Int'l Code: 2025-009BV
Perigee: 507.3 km
Apogee: 516.3 km
Inclination: 97.4 °
Period: 94.7 minutes
Semi major axis: 6882 km
RCS: Unknown
Launch date: January 14, 2025
Source: Spain (SPN)
Launch site: AIR FORCE WESTERN TEST RANGE (AFWTR)

Uplink (MHz):
Downlink (MHz): 401.700
Beacon (MHz):
Mode: LoRa
Call sign:
Status: Unknown

Your satellite tracking list
Your tracking list is empty




NASA's NSSDC Master Catalog

Two Line Element Set (TLE):
1 62676U 25009BV  26043.68700931  .00003496  00000-0  16353-3 0  9995
2 62676  97.4051 124.2094 0006552  63.6935 296.4973 15.20395721 59770
Source of the keplerian elements: AFSPC